Temp
16 13 12 15 18 18 19 19 19 16 15 15 15 16 17 19 17 18 19 18 16 15 13 12 12 11 12 12 12 12 12 12 12 12 12 11 11 11 11 10 10 10 10 10
15 13 13 15 16 18 19 21 17 15 15 15 16 15 16 18 18 17 17 16 15 13 12 11 11 11 10 11 11 12 12 12 12 12 11 11 11 10 10 10 10 9 9 9
14 12 14 15 17 18 14 16 16 15 15 15 14 15 18 17 16 15 15 16 15 13 11 10 10 10 11 11 12 12 12 12 12 12 12 11 11 10 9 9 9 9 9 9
12 13 14 16 14 13 15 14 15 16 15 12 16 13 18 14 14 14 14 14 14 13 12 11 10 10 11 11 12 12 11 11 11 11 11 11 11 10 9 9 9 8 8 8
11 13 14 14 11 12 12 13 13 14 14 12 15 9 15 15 15 13 14 15 14 13 12 11 10 10 11 11 11 11 11 11 11 11 11 11 10 10 9 9 8 8 8 7
10 11 11 11 11 12 12 13 14 13 11 8 14 10 10 13 16 15 15 15 14 12 11 10 10 10 11 11 11 11 11 10 11 10 10 10 10 10 9 9 8 8 8 8
12 11 11 11 12 12 12 10 9 9 9 9 10 9 10 14 14 13 15 14 13 12 11 10 10 10 10 10 10 10 10 10 10 10 10 10 10 9 9 8 8 8 8 8
9 8 11 10 11 11 13 11 9 12 10 10 11 9 10 12 13 13 14 14 13 11 10 10 10 10 10 10 10 10 10 10 10 10 10 10 10 9 9 8 8 7 7 7
13 9 10 9 10 10 12 9 11 10 13 10 9 14 14 13 12 13 13 13 12 11 11 10 9 9 9 9 9 10 9 10 10 10 10 10 9 9 8 8 7 7 7 7
13 9 10 9 10 10 10 11 10 7 11 13 10 15 9 12 13 12 12 12 12 11 11 10 9 9 9 9 10 10 10 9 9 9 9 9 9 9 8 8 7 7 6 6
12 13 9 10 9 11 9 10 11 10 10 11 12 9 14 7 12 13 12 12 12 12 11 10 10 9 9 9 9 9 9 9 9 9 9 8 8 8 8 7 6 6 6 6
11 11 7 11 10 10 10 12 12 8 12 10 9 7 14 11 12 13 14 14 13 13 12 11 10 9 9 8 8 8 9 9 9 8 8 8 7 8 7 7 6 6 6 6
10 11 8 9 8 9 8 10 11 10 8 9 10 10 11 12 12 13 12 12 12 12 12 12 11 10 9 8 8 7 8 8 8 8 7 7 7 7 7 6 6 6 6 5
9 10 11 9 12 11 9 10 10 9 4 8 9 13 11 12 12 11 11 11 10 10 10 10 11 11 10 9 8 7 7 7 7 7 7 7 6 6 6 6 6 5 5 5
8 9 7 8 9 10 10 10 9 7 8 9 12 12 12 9 9 10 9 9 8 8 8 8 9 10 9 9 8 7 6 6 6 6 6 6 6 6 6 5 5 4 4 4
8 7 9 7 10 10 9 9 9 10 10 10 10 10 9 9 9 8 7 7 7 7 7 7 8 8 9 8 8 7 6 6 6 6 5 5 5 5 5 4 4 3 3 3
8 8 7 8 10 10 8 10 9 9 10 10 9 10 8 7 7 7 7 6 6 6 6 6 6 7 7 7 7 6 6 5 5 5 5 4 4 4 4 3 3 2 2 2
9 9 8 6 9 7 11 9 10 9 11 10 9 7 7 7 7 7 6 5 5 5 5 5 5 6 6 6 6 6 5 4 4 4 4 3 3 2 2 2 2 1 1 1
8 8 7 6 7 9 10 9 9 9 9 8 8 6 6 6 7 6 5 4 4 4 4 4 4 5 5 5 5 4 3 3 3 3 2 2 2 1 1 1 1 1 1 1
6 7 6 7 7 8 9 8 9 8 6 7 7 5 4 4 4 4 4 4 3 3 2 2 2 2 3 2 2 2 2 2 2 2 1 1 1 1 0 0 1 1 1 1
5 5 4 5 5 7 8 8 8 7 5 5 4 3 3 2 4 4 3 3 2 2 2 1 1 1 1 2 2 2 2 1 1 0 0 0 0 0 0 0 0 0 0 0
6 5 4 6 6 6 7 7 7 3 2 3 2 2 2 3 3 2 2 2 1 1 1 1 1 0 0 0 0 -0 -0 0 -0 -0 -1 -1 -0 -0 -0 -0 -0 -0 -0 -0
6 8 8 8 7 5 4 2 2 3 2 1 2 3 2 2 2 1 1 1 1 1 1 0 0 -0 -0 -0 -0 -0 -0 -1 -1 -1 -1 -1 -1 -1 -1 -1 -1 -1 -1 -2
8 9 7 7 5 4 2 1 1 2 2 2 2 2 1 1 1 1 1 0 0 0 0 -0 -1 -1 -1 -1 -1 -1 -1 -1 -1 -1 -1 -2 -2 -2 -2 -2 -2 -2 -2 -2
7 6 6 6 1 1 1 1 2 2 2 2 2 1 1 0 0 0 0 0 0 -0 -0 -1 -1 -1 -1 -2 -2 -2 -2 -2 -2 -2 -2 -2 -2 -2 -3 -3 -3 -3 -3 -3
5 6 5 5 3 2 1 3 2 2 1 1 1 1 1 0 0 -0 -0 -0 -1 -1 -1 -1 -1 -2 -2 -2 -2 -2 -2 -3 -3 -3 -3 -3 -3 -3 -3 -3 -4 -4 -4 -4
Height
1503 1508 1512 1505 1500 1498 1496 1500 1503 1512 1516 1518 1517 1513 1507 1506 1508 1510 1512 1515 1515 1518 1519 1522 1523 1525 1526 1527 1528 1529 1529 1529 1529 1528 1527 1526 1526 1525 1523 1522 1521 1518 1517 1515
1505 1509 1507 1504 1501 1497 1493 1495 1509 1515 1515 1518 1513 1512 1502 1502 1504 1506 1509 1511 1514 1516 1518 1520 1522 1523 1525 1526 1527 1527 1528 1529 1529 1528 1527 1525 1525 1524 1523 1521 1519 1518 1515 1513
1504 1512 1508 1506 1503 1501 1510 1510 1513 1518 1516 1515 1518 1512 1498 1502 1503 1506 1510 1511 1512 1514 1517 1519 1521 1522 1524 1525 1526 1527 1528 1528 1528 1528 1526 1525 1523 1522 1521 1520 1519 1516 1514 1511
1511 1512 1509 1507 1512 1514 1513 1517 1517 1516 1521 1534 1514 1538 1500 1503 1506 1507 1509 1511 1512 1514 1517 1519 1521 1522 1523 1524 1525 1527 1527 1527 1528 1527 1526 1524 1522 1520 1519 1518 1516 1515 1513 1510
1517 1513 1512 1512 1521 1516 1521 1518 1520 1521 1523 1528 1520 1545 1510 1502 1506 1506 1506 1509 1512 1514 1517 1519 1521 1521 1523 1524 1525 1526 1527 1527 1527 1527 1525 1523 1521 1519 1518 1516 1515 1513 1511 1508
1518 1518 1519 1520 1521 1517 1519 1520 1521 1524 1530 1552 1522 1536 1527 1510 1500 1500 1504 1508 1512 1515 1518 1520 1520 1521 1522 1523 1524 1525 1526 1526 1526 1526 1524 1522 1520 1518 1517 1515 1513 1512 1509 1506
1516 1521 1522 1522 1520 1520 1519 1530 1547 1551 1552 1550 1533 1542 1520 1503 1502 1504 1505 1508 1512 1515 1518 1519 1520 1521 1522 1523 1524 1525 1525 1525 1525 1524 1523 1521 1519 1517 1516 1514 1512 1510 1507 1505
1528 1539 1524 1525 1524 1523 1521 1527 1542 1544 1549 1543 1531 1538 1519 1506 1504 1505 1505 1506 1510 1513 1516 1516 1518 1519 1520 1521 1522 1523 1523 1523 1523 1522 1521 1519 1518 1516 1515 1513 1511 1509 1506 1504
1516 1529 1528 1527 1525 1526 1525 1536 1529 1535 1525 1542 1533 1510 1506 1505 1506 1507 1507 1508 1510 1511 1513 1514 1516 1517 1518 1519 1520 1521 1522 1522 1521 1520 1519 1518 1516 1515 1513 1511 1509 1507 1505 1503
1512 1530 1527 1528 1527 1528 1528 1529 1537 1543 1542 1533 1529 1506 1523 1508 1505 1506 1507 1508 1509 1511 1512 1512 1513 1513 1514 1515 1516 1517 1518 1518 1518 1517 1516 1516 1514 1512 1510 1508 1506 1504 1502 1500
1513 1514 1532 1528 1528 1525 1532 1530 1530 1532 1534 1538 1535 1531 1500 1510 1503 1503 1504 1506 1508 1508 1508 1509 1510 1510 1512 1512 1513 1514 1515 1515 1514 1514 1513 1513 1511 1510 1508 1505 1504 1502 1501 1498
1515 1516 1535 1522 1525 1526 1525 1521 1520 1539 1529 1531 1536 1537 1499 1502 1504 1505 1505 1507 1508 1508 1507 1508 1509 1510 1510 1510 1511 1511 1512 1512 1512 1511 1511 1509 1508 1506 1504 1502 1500 1499 1497 1495
1518 1517 1534 1530 1531 1527 1528 1522 1520 1522 1532 1533 1533 1525 1502 1503 1503 1505 1506 1506 1507 1506 1506 1506 1507 1508 1508 1509 1509 1510 1510 1509 1509 1509 1508 1507 1505 1503 1501 1499 1497 1495 1494 1492
1520 1518 1518 1528 1517 1517 1523 1518 1519 1525 1547 1528 1522 1505 1506 1503 1505 1505 1505 1505 1505 1504 1504 1504 1503 1503 1504 1504 1506 1507 1508 1507 1507 1506 1505 1503 1502 1500 1498 1496 1494 1492 1490 1488
1520 1523 1525 1521 1519 1517 1517 1516 1518 1526 1515 1519 1502 1503 1502 1505 1504 1504 1504 1505 1505 1505 1504 1503 1502 1502 1503 1503 1504 1505 1506 1505 1505 1503 1501 1499 1497 1495 1493 1491 1489 1487 1485 1484
1519 1522 1518 1520 1509 1510 1516 1511 1511 1509 1508 1509 1508 1505 1504 1504 1503 1504 1506 1507 1507 1506 1506 1503 1501 1501 1502 1503 1504 1504 1504 1504 1503 1501 1498 1496 1493 1491 1488 1487 1485 1483 1481 1479
1520 1522 1523 1519 1509 1511 1514 1495 1498 1499 1497 1498 1505 1501 1503 1504 1505 1507 1508 1508 1508 1508 1506 1504 1503 1502 1501 1501 1501 1501 1501 1500 1497 1496 1494 1491 1488 1486 1484 1481 1480 1478 1476 1474
1516 1519 1520 1525 1512 1522 1490 1489 1491 1493 1489 1494 1498 1501 1504 1506 1506 1508 1508 1508 1508 1508 1506 1505 1503 1501 1500 1499 1498 1497 1496 1495 1494 1491 1489 1487 1484 1481 1478 1476 1474 1472 1470 1468
1516 1516 1520 1523 1516 1497 1486 1491 1491 1491 1493 1495 1498 1503 1505 1507 1507 1508 1507 1507 1507 1507 1505 1504 1502 1500 1498 1496 1494 1492 1491 1491 1489 1486 1483 1481 1479 1476 1473 1471 1468 1466 1463 1462
1518 1518 1524 1517 1518 1506 1488 1491 1491 1492 1499 1497 1499 1503 1504 1505 1507 1507 1508 1506 1505 1504 1502 1501 1499 1497 1495 1493 1490 1488 1487 1484 1483 1481 1479 1477 1474 1471 1468 1465 1463 1460 1458 1455
1521 1523 1523 1520 1519 1497 1489 1491 1492 1499 1504 1500 1501 1505 1509 1510 1510 1507 1504 1502 1503 1502 1500 1498 1496 1494 1491 1489 1486 1483 1481 1479 1477 1474 1471 1469 1468 1466 1463 1460 1457 1454 1451 1449
1510 1516 1519 1515 1511 1506 1494 1495 1498 1502 1502 1503 1506 1506 1506 1508 1507 1505 1503 1502 1500 1498 1497 1495 1493 1490 1487 1485 1482 1479 1477 1474 1471 1469 1466 1463 1461 1458 1456 1453 1450 1447 1444 1440
1506 1498 1499 1498 1494 1495 1496 1497 1500 1501 1502 1504 1505 1505 1504 1504 1506 1504 1501 1499 1498 1496 1493 1491 1489 1485 1483 1481 1479 1475 1471 1469 1465 1462 1458 1456 1453 1449 1447 1445 1441 1439 1436 1432
1493 1491 1494 1495 1496 1495 1496 1498 1500 1501 1501 1501 1502 1503 1503 1502 1501 1500 1499 1497 1495 1492 1489 1487 1484 1481 1477 1474 1471 1469 1465 1462 1458 1454 1450 1447 1444 1440 1437 1436 1434 1430 1427 1424
1496 1495 1493 1490 1493 1493 1494 1494 1497 1498 1501 1501 1501 1502 1502 1501 1499 1497 1494 1491 1489 1486 1484 1481 1477 1473 1469 1466 1463 1460 1456 1453 1448 1445 1441 1438 1435 1431 1429 1427 1424 1421 1418 1416
1494 1489 1491 1486 1488 1490 1493 1493 1494 1494 1495 1496 1495 1495 1496 1499 1497 1494 1490 1486 1483 1480 1478 1474 1471 1466 1461 1458 1454 1450 1447 1443 1440 1436 1433 1429 1425 1421 1419 1416 1412 1410 1408 1406
Wind_Speed
8 2 4 9 4 5 7 8 7 5 3 0 8 8 9 9 18 17 9 10 4 8 13 13 14 13 11 7 4 2 3 6 5 5 6 6 6 7 8 11 11 13 14 15
3 3 5 6 6 5 6 4 5 4 4 1 6 9 10 8 5 3 2 5 10 15 10 12 13 11 8 7 5 2 3 2 4 5 6 6 7 8 9 10 15 15 17 16
4 4 3 5 1 3 7 5 4 4 3 5 4 7 3 4 8 6 4 6 12 11 13 12 10 9 10 7 4 1 2 2 3 4 5 8 9 10 11 13 13 14 15 16
5 1 2 2 5 6 4 5 3 3 3 2 1 4 4 6 6 7 12 9 12 14 13 13 12 9 9 6 4 4 2 1 3 5 8 10 11 12 12 13 14 13 14 16
1 2 3 5 4 5 4 3 5 3 2 3 3 3 5 5 6 7 12 14 13 13 14 14 12 12 8 6 6 4 1 1 5 7 8 9 10 11 12 12 13 13 13 14
4 2 4 3 4 7 5 3 2 1 2 2 0 4 5 3 2 4 11 16 14 13 11 12 12 9 8 7 6 4 1 2 5 7 8 10 11 12 13 13 14 14 14 14
3 3 2 3 2 2 1 4 2 5 3 5 1 3 8 4 5 5 4 15 13 11 11 11 10 9 8 8 6 4 2 3 6 7 8 10 11 12 13 14 15 16 16 16
4 3 3 3 4 2 2 1 3 5 2 3 2 5 5 3 7 5 5 16 13 12 11 12 11 10 10 10 7 6 4 5 6 6 8 9 11 12 13 14 15 15 16 16
3 2 2 5 4 4 2 1 1 2 1 3 4 5 1 3 4 2 1 12 12 13 14 13 12 14 13 12 10 7 6 6 5 6 7 8 9 11 12 13 14 14 15 15
3 4 2 2 2 2 2 2 2 2 0 4 5 3 4 1 2 5 5 7 10 12 13 14 16 16 14 14 13 11 8 6 4 4 5 7 9 11 13 14 15 15 15 16
2 1 1 1 4 3 2 1 2 1 3 2 3 5 2 7 3 3 9 10 11 15 17 17 17 15 16 16 15 14 10 8 6 5 6 8 9 11 13 14 16 16 16 16
3 2 2 1 3 4 4 3 4 4 3 2 3 6 3 7 6 4 4 3 4 13 16 15 16 15 17 18 18 15 12 10 9 7 7 8 10 12 14 15 17 17 17 16
4 2 1 2 1 1 4 5 4 3 4 5 3 5 5 8 10 7 10 13 9 9 3 8 14 17 20 19 16 17 14 13 11 9 8 9 11 13 14 15 17 17 17 17
5 3 3 4 1 3 4 5 7 6 3 4 7 3 6 4 5 10 11 8 10 13 13 12 15 18 19 19 18 18 16 15 12 9 9 10 13 15 16 17 18 18 17 16
3 1 5 4 6 5 4 6 9 10 12 6 2 4 6 5 6 12 14 15 15 16 17 15 14 14 15 17 18 16 15 17 13 12 13 14 15 15 17 18 19 20 19 18
2 2 1 4 2 6 7 12 11 14 17 13 14 17 5 11 12 15 14 14 16 17 18 20 13 10 9 11 13 14 15 17 17 16 17 17 17 17 18 20 21 21 20 21
3 2 2 4 2 4 7 15 15 7 6 7 11 3 7 5 8 8 9 12 14 16 17 17 17 12 9 9 10 13 16 17 21 21 21 20 19 19 20 22 22 23 23 23
2 2 1 4 4 4 4 3 1 4 7 3 4 6 8 6 7 9 10 11 11 12 13 13 12 9 7 9 14 18 21 22 23 24 23 22 21 22 23 22 23 24 24 24
4 2 2 3 4 8 6 3 1 2 1 4 5 6 7 7 5 9 12 11 9 10 12 14 16 16 16 17 17 18 21 23 24 24 23 23 22 23 25 25 24 23 23 24
4 3 1 2 3 5 2 4 4 5 3 6 11 8 8 10 1 2 18 14 12 12 14 16 19 17 17 16 18 21 22 21 21 22 23 23 25 25 25 24 25 25 26 27
3 3 7 6 4 6 4 9 3 3 2 11 11 8 4 4 7 14 15 13 12 16 18 19 20 22 21 20 22 25 25 26 23 22 24 25 25 24 25 26 26 26 27 27
6 6 4 4 4 7 5 3 2 5 10 7 1 3 5 7 9 9 12 14 15 17 18 18 20 20 21 23 22 23 25 25 25 25 24 25 25 27 29 30 30 31 31 32
2 4 2 4 3 7 9 12 8 6 4 4 5 3 4 6 9 11 12 13 15 18 20 21 23 26 27 26 24 25 27 27 28 27 28 31 34 35 33 31 31 32 32 34
5 5 2 4 5 7 7 4 1 1 1 4 5 5 7 8 10 11 12 14 17 21 24 26 27 27 29 30 30 29 30 30 32 35 37 38 37 36 34 33 33 34 34 33
1 4 3 5 5 3 4 6 6 2 6 6 6 7 9 10 12 14 15 18 20 22 24 27 30 34 35 34 32 31 32 32 34 37 39 38 37 35 35 34 34 35 35 36
12 15 9 8 5 3 2 3 7 9 8 7 8 10 12 15 20 20 22 23 24 26 26 29 32 33 35 35 37 37 36 34 34 36 37 35 35 34 36 38 37 36 36 36
Wind_Direction
207 139 211 220 260 314 219 211 154 92 134 24 231 252 253 216 203 220 234 248 136 174 169 174 181 193 195 194 201 240 323 340 2 14 19 10 357 345 341 335 336 338 337 333
150 143 23 335 327 317 5 124 75 61 125 176 303 279 252 229 221 128 63 137 154 156 167 179 188 184 163 192 203 235 323 13 30 14 4 360 354 356 348 340 339 331 331 331
109 44 344 297 296 68 35 30 52 72 214 223 286 278 146 85 109 114 174 140 168 179 172 177 177 182 194 200 200 246 125 66 15 6 359 356 348 343 339 326 331 337 337 336
68 328 273 248 72 353 120 19 60 28 22 238 225 275 211 145 171 177 171 177 165 165 171 170 171 186 205 186 189 161 141 39 12 356 352 352 350 347 343 340 342 341 337 335
259 41 5 56 12 318 107 34 53 11 6 45 199 73 264 127 187 189 181 172 160 162 167 171 181 196 196 181 173 173 168 41 2 349 350 354 355 352 347 344 344 345 342 342
81 68 22 54 53 44 136 153 120 81 39 34 106 121 285 192 116 139 168 157 160 162 173 184 204 203 195 183 184 195 173 357 342 341 347 352 354 352 352 353 352 353 353 351
140 49 96 326 154 151 299 54 8 357 11 222 204 59 240 121 71 37 155 151 158 173 190 205 207 197 195 194 201 193 256 322 331 339 347 354 357 356 356 357 356 356 357 356
146 320 22 352 28 14 107 101 154 218 212 259 67 242 259 75 46 40 5 155 163 185 211 220 209 204 204 210 209 220 265 307 322 336 351 356 358 359 358 355 354 355 354 354
116 81 130 31 351 10 136 196 17 35 9 46 221 250 114 81 108 130 92 142 172 205 211 223 207 215 217 219 219 237 270 294 317 339 348 352 352 352 352 351 350 348 347 346
12 94 9 102 283 86 2 321 62 354 190 256 263 237 227 146 130 168 163 205 210 225 223 225 222 223 220 227 229 238 253 268 286 308 325 334 341 343 343 343 341 339 337 335
340 131 154 40 198 147 149 219 221 60 169 205 322 263 165 188 165 159 195 208 229 233 232 230 230 230 227 234 237 240 248 252 257 274 303 320 331 335 335 335 334 331 329 327
54 335 144 112 66 7 314 298 186 137 219 210 183 274 108 109 114 127 85 113 283 268 241 234 234 232 231 239 245 242 245 246 250 267 291 309 319 326 329 329 326 324 323 322
354 263 115 331 5 161 248 200 262 64 42 222 142 267 127 155 151 143 45 18 2 345 263 243 244 237 236 245 249 252 246 244 250 265 290 310 318 320 320 320 320 316 314 313
340 318 217 182 196 139 203 219 195 163 154 215 218 189 204 161 65 53 32 17 2 356 341 323 259 247 244 241 243 250 250 250 254 274 292 305 313 314 314 315 315 311 307 304
47 273 26 306 272 268 246 249 202 211 226 192 235 279 322 61 62 40 42 27 24 11 355 339 325 280 258 250 239 248 248 253 265 279 290 298 306 308 307 308 308 304 301 300
143 227 83 288 215 205 245 241 239 234 237 248 269 281 60 49 49 53 49 42 33 21 12 7 350 338 277 275 262 258 254 270 275 281 292 297 301 303 304 305 304 301 300 299
182 218 171 265 182 298 269 243 218 223 220 217 237 243 80 57 85 79 61 42 26 13 7 6 8 353 325 294 278 260 269 274 276 286 291 291 293 295 297 299 302 303 303 303
205 219 324 273 333 236 236 80 74 272 208 113 353 77 79 45 122 111 62 30 8 357 349 342 338 333 319 290 286 280 277 274 280 288 292 289 292 295 296 299 300 301 302 301
219 272 249 219 231 288 218 167 80 150 195 107 120 91 59 357 286 120 35 22 5 345 335 335 331 322 304 291 280 274 278 285 291 291 294 296 295 291 297 301 301 301 300 299
288 273 296 226 240 250 131 121 116 112 241 103 108 93 54 352 320 142 357 354 347 340 338 334 331 326 322 321 303 295 297 300 298 296 292 283 285 291 296 297 297 297 297 298
161 213 216 231 266 279 116 132 147 143 209 89 89 64 8 318 321 319 323 326 328 328 328 328 323 321 319 311 307 305 304 304 306 295 290 291 295 300 302 302 302 302 302 300
169 172 191 199 242 264 55 98 220 121 73 78 38 284 289 294 297 308 315 325 327 327 328 326 324 321 315 314 313 305 302 306 304 297 292 295 306 312 310 307 303 300 299 298
270 221 207 203 217 104 61 108 118 107 114 286 268 292 275 287 297 304 316 321 321 323 322 319 317 314 314 315 310 301 299 299 301 298 296 297 304 307 306 300 297 295 293 290
240 252 216 5 80 118 138 121 142 338 237 251 251 275 286 289 290 296 302 307 314 320 318 316 314 309 307 307 305 303 301 298 294 290 289 291 293 292 293 293 291 289 290 288
266 5 265 256 120 142 199 236 232 248 249 262 269 280 281 283 284 288 290 297 309 315 321 322 315 311 310 310 306 304 298 297 294 292 292 294 293 290 287 286 285 283 284 285
248 253 246 265 130 123 6 309 205 224 241 251 265 274 276 278 283 288 287 291 298 306 310 311 314 307 303 304 305 306 305 303 298 295 296 294 291 287 285 287 287 287 284 286